Location: Newark
(12.4436°N, 0.6167°W)
Time: 18:23:45
(UTC+00:00)

deb Explorer IX - Pass Details

Date: 11 December 2019
Orbit: 548 x 1101 km, 38.8° (Epoch: 28 January)

Event Time Altitude Azimuth Distance (km) Brightness Sun altitude
Rises 23:06:29 0° 307° (NW) 3,886 - -74.2°
Reaches altitude 10° 23:09:14 10° 306° (NW) 2,945 - -74.7°
Maximum altitude 23:16:33 79° 221° (SW) 1,103 - -75.9°
Drops below altitude 10° 23:23:32 10° 135° (SE) 2,811 - -76.9°
Sets 23:26:07 0° 133° (SE) 3,700 - -77.3°
